indice_tiempo,oferta_global_pib,oferta_global_importacion,oferta_global_total,demanda_global_consumo_priv,demanda_global_consumo_publico,demanda_global_ibif_total,demanda_global_ibif_equipo_durable_produccion,demanda_global_ibif_equipo_durable_produccion_nacional,demanda_global_ibif_equipo_durable_produccion_importado,dg_ibif_equipo_durable_prod_maquinaria_equipo_total,dg_ibif_equipo_durable_prod_maquinaria_equipo_nacional,dg_ibif_equipo_durable_prod_maquinaria_equipo_importado,dg_ibif_equipo_durable_prod_material_transporte_total,dg_ibif_equipo_durable_prod_material_transporte_nacional,dg_ibif_equipo_durable_prod_material_transporte_importado,demanda_global_ibif_construccion,demanda_global_ibif_otras_construcciones,demanda_global_ibif_otros_activos_fijos,demanda_global_exportacion,demanda_global_total
2004-01-01,95.40074225385659,94.83745620005561,95.32358076477544,95.63760119877934,94.93483355157944,91.31815614115953,88.88478796773578,87.57237359634475,90.22889554476494,89.32748891185936,88.1159545309091,90.41486021267269,87.31443730353877,86.10825143668906,89.30697466449504,92.88100545109678,92.46684703721942,96.72415133165046,97.30238949988701,95.3235225355323
2004-04-01,99.0480055142365,97.64080964510367,98.85859742491918,98.69972174480654,96.54934731425058,97.65175806779249,97.04304716589597,97.4773528411412,96.56944037079,96.81587942995677,97.47988532174342,96.20205854229292,97.78978007502597,97.4712694568484,98.40078968143888,98.20808952605593,97.42042628509128,103.61031180568618,101.07784626112633,98.85858635231308
2004-07-01,101.51935416508806,102.6451143838895,101.68907431798453,101.42587873951967,102.21771025064687,103.83638989725522,105.99950303344446,105.0178033338439,107.00136419053736,104.67604247143063,104.71853598126009,104.63766568692546,110.49636936847067,105.81037646109831,117.78991145368092,102.57659917831717,102.07551949112015,100.05465083341952,100.81968415802348,101.68910546738078
2004-10-01,103.87172345435356,103.84790265031727,103.86804898863934,104.52424975817316,105.1868452405619,106.7906747987835,108.06336802912708,110.73082601305057,105.68324620713314,109.20414541115862,110.15919231592046,108.43687381455867,103.73018453753038,112.42639401370853,92.1798015988555,105.64671358747884,108.73670473221881,99.68301722543677,100.4171519749753,103.86808506899253
2005-01-01,103.46450744837988,103.77075767061366,103.50945434291681,102.9968667767476,111.56651361523096,109.44606952605305,103.4040146819842,106.02044699363636,100.51305648392469,103.84722437471734,107.4854272775595,100.56210087737234,102.15174468950632,103.07753429763726,100.29412130533126,110.2477200383577,132.17325399741227,100.22153587910803,97.66378545373394,103.50945434236267
2005-04-01,104.14386138007305,106.1085939266623,104.42538944939315,103.76276776631418,114.14002337131262,110.06216295318137,101.91240788046217,106.84535999936284,96.53314089506435,102.39435276186538,108.64382594626932,96.7259186609861,100.6112344960271,103.26973006293056,95.76244090802977,113.99978014134734,132.15217441702842,108.62417883565756,100.46591469345341,104.4253894490887
2005-07-01,114.67303166577997,105.71101735645118,113.2537925154146,114.35207542694205,120.82687773993707,115.10218086305801,110.08611174792622,116.9626865931813,102.90203733448631,109.20587183402803,116.40447869436909,102.90062390148391,112.6395067038453,118.14661106652555,102.9080852053934,115.79766550879829,134.46012629626117,111.71934025809549,104.91629136295641,113.2537925160608
2005-10-01,119.37802240824655,109.92843884699725,117.86405479606445,118.4746648224637,129.30363651054756,117.76832981757681,113.59643692661862,121.64577535009586,106.4241441646963,114.26591431775239,122.31390435776801,107.67007764946968,111.73842778804561,120.06648952734238,102.39071836381362,118.53674333063671,136.56543839946698,124.4961036626903,111.39217555432157,117.86405479566973
2006-01-01,120.89124468903248,115.37960247380188,120.04460989077953,118.53878710931569,136.10913137701067,123.7371200524236,115.19020824706574,120.20324944243434,110.22050418635432,116.10178957231696,123.12795739432414,110.66252826793391,112.49956096779698,114.6580818048663,107.92741928363017,126.1625324929339,154.03894020657418,126.2656444226018,114.06422584760641,120.0446098907751
2006-04-01,118.55026443444198,117.54656105250618,118.4076020027903,114.47388107716225,141.98723515375457,124.1827185751289,112.23065147214297,118.5921475274578,105.35745006365565,113.38743846877712,122.12068869723186,105.72290044904126,109.00581900008703,111.66847882492605,103.74226208959702,130.82676467774027,152.84166656386907,124.8088869065261,116.71419353285444,118.40760200258661
2006-07-01,129.54293899668554,120.52528934205517,128.0707254870843,125.93450395523126,145.48572926263233,131.41257177831844,122.13854639401751,131.10306133826032,112.55760857909264,121.89143079905327,132.51007858865924,112.59031901581274,122.90159833244199,128.0754936407638,112.39442235074664,135.84622688969284,155.94635888241046,121.6119375537468,121.73151811878978,128.07072548709732
2006-10-01,133.16584321400185,120.43666098260357,131.08246524392152,129.42599939006254,154.05738299953498,133.700532228367,123.95743217523875,132.69420085703157,114.53331372337685,124.11639820873035,134.37311284461032,114.94671292418468,123.48311160737116,129.10532691486677,112.62419587013139,139.30015235381344,159.32755757710845,124.55535879797637,125.08684308879394,131.0824652444555
2007-01-01,134.24494558938827,123.93989700387719,132.56599152325083,128.4057736300898,159.4968479329439,132.9886565872368,119.8606876112097,130.1308953195675,111.58605650882598,120.05032430066767,133.44025271216137,112.19134667148782,119.22461018994568,124.28487064262659,107.28910076423877,137.88042336450806,192.8037028481214,121.06122935850601,129.61870477314363,132.5659915230782
2007-04-01,134.0531904427567,126.95124943749816,132.99836316124575,129.7651041833943,170.30168176609996,136.23642955154685,119.72663442072304,131.99318560143115,109.16162640697537,120.13142363765694,134.96912697873333,110.11633493442874,118.4245637440576,126.10352499627918,103.84780272401348,147.1372483502724,189.11724015338868,123.80363149964928,127.14202396045991,132.99836316161458
2007-07-01,149.7486059916207,134.60235747761163,146.98580605200107,146.19618782311247,180.85554037972727,146.71128580277937,131.69813613854092,147.87005380987992,118.91496754497484,130.0850526243824,147.14066362851625,119.5704363724863,137.38877486951645,149.37164950843882,114.786252702863,155.61059946249622,199.64242316481926,127.9482730225257,134.76854647538136,146.9858060518789
2007-10-01,158.98950800785983,134.66951916090872,154.62978553361467,148.53099627492458,190.09984499839592,151.43642528764263,133.65148016090103,152.03911309388002,119.66962917715756,129.59534449140497,151.51971907886104,117.17850868095832,150.24982434522394,153.10659047498675,142.9066686930076,162.4251440634736,213.87186851303116,143.30363567936513,151.9204326063905,154.62978553371636
2008-01-01,167.39464839027926,137.95890757258093,161.9927564890407,155.07845058879423,204.73369672772566,155.07156857518615,131.26993738001744,153.6556930434355,117.11072914739933,129.9303666544442,157.25739624332417,116.86089983961973,135.85971296243864,147.07218313342926,118.58206192705099,173.97062433854816,217.978183779618,142.24577971454863,168.9646455579363,161.99275648864432
2008-04-01,170.6317156969208,150.0407717902986,167.10469762910373,161.96749314269854,218.31696716820312,159.3642569652034,133.33571471017933,160.67673865444573,114.05425466130588,130.93173736325994,164.40300195581855,113.7674219503062,142.2490884974352,153.89047888609494,116.32289263285949,183.6937889430071,223.00618441679885,146.54165566379083,168.7039680007344,167.10469762922824
2008-07-01,182.9260229440088,151.3497905047078,176.88591967148758,172.98057249495102,228.45684629466598,166.50111881178736,139.63734495278325,179.02624625194434,113.8910878772129,135.12651443085758,178.71667650375164,113.55644811853472,156.25419055625736,179.62362485912072,116.13159590591718,187.59596120715807,245.75140058092254,140.3271506693067,171.92542545098698,176.88591967193358
2008-10-01,190.49214218662354,151.10581308836882,183.50401687362907,176.65601738800783,245.93566472015183,173.3822762104318,145.69285573590642,180.21965658891256,122.12945659814574,141.04663222132413,180.5660823321141,119.55972893775038,164.90672889414824,179.41437021120606,140.5641069097969,191.34451167473387,266.43246130808313,148.37351161322917,165.2573383567678,183.5040168734951
2009-01-01,192.25678602777467,145.79505811525715,184.89762244118197,181.65666128170258,256.5731148948132,179.05903761570022,143.50555118118916,172.20331367095915,124.28996632709391,139.55508629625575,174.7505196937184,123.50466248118492,160.25274154209202,167.83055979000983,134.3822423933146,201.71007566615398,270.06357978061885,163.14593669509142,160.56759807743805,184.89762244069578
2009-04-01,198.26824861874763,157.32647081484677,192.4418434610365,184.74468938691544,268.8325577440048,183.80714949315802,151.56789908493678,172.7875262110871,131.03638251000942,148.60886935358997,175.43895428970674,129.20990493499835,162.32496744203436,167.42306957248408,146.70040082265996,209.6667672239191,251.1641074305299,162.50379289325957,177.47989349361762,192.44184346151357
2009-07-01,207.97599548578103,158.83762885427575,199.72879683377388,193.5850726666979,267.8689375247924,190.87377877804215,159.3519626955192,185.5357006141699,136.61767549334564,153.30606766815754,183.07464354239178,134.9180215842185,185.42814742772032,190.46458165609695,162.120405076298,214.9473185729914,256.7338586343474,176.39132484687968,186.5587687418503,199.72879683409178
2009-10-01,220.76789225736832,158.37522945045487,209.944082222772,202.6192239386216,283.87955491723073,195.29027728429625,161.74777781719703,191.42672226688055,136.53607150319718,155.5487887797816,188.45469435365035,133.73186507105908,187.69608433868217,198.38213925190053,161.1371411712202,220.0478771392778,273.3326520497795,189.9957835318552,191.52215681017657,209.94408222292398
2010-01-01,231.98837964860584,162.26543922241714,219.68176346820795,217.52112824037556,295.2745318549183,205.19015355146246,161.91731520105316,195.2288505518727,135.57114469153905,157.43276179007898,197.27898403263526,134.29474900543912,177.4065972727151,191.5026707409315,144.8097354748555,242.62327706007892,269.52712856170467,223.09741191810835,196.5903355308345,219.68176346808792
2010-04-01,229.7936810442736,171.08187895226027,219.75883095778715,220.46993144783607,312.89646735013304,207.273720533694,163.6496970804209,199.17910913834962,133.92175819747797,159.19908814643827,200.89950953296773,132.26531647123713,178.57742607587502,195.78554152243166,144.0670182777391,252.44553024183142,271.246782782419,250.5223936037482,194.18151497783342,219.75883095786918
2010-07-01,256.19508674574274,170.65285888818914,238.6989158515907,240.66846186021598,333.3332359281636,214.52332938812594,172.7796514067111,218.74251196225168,137.4885892764338,165.2888244430031,214.7521342725512,135.64704443353673,200.22215284491293,227.1346174744063,149.63628392700795,257.31228020270464,285.28101722827915,258.36303503999375,202.1417403935434,238.6989158513421
2010-10-01,273.743094466418,171.4508214925636,252.45227381026507,252.67555942613336,353.4120156887675,216.5548259220611,175.1456825461957,223.3692595181171,140.77527849976207,166.69602587406172,219.67175343001531,136.72958814740838,203.3315140746576,230.8075775834404,162.27483835018344,266.184569539065,293.195503450395,306.28242115162743,218.80010097147547,252.45227381024839
2011-01-01,285.18106379234223,177.36474227217394,262.98703063910335,260.7288114281056,385.47187999588203,232.85272568991124,170.9367728416465,223.7697794494948,137.31897345661994,164.3872872938134,224.30041399820732,134.42078171923757,195.34287889421498,222.66275319310503,155.1178634244865,299.2521976389461,364.15394936951327,300.5013613214407,234.13530297641438,262.98703063935045
2011-04-01,291.92582963699965,193.51365693424611,272.7187031680427,269.61855074507565,410.7846057033086,240.64860756775818,180.7114046789431,231.51518733267955,139.11589730226527,173.36046764316586,233.20704387645782,134.35617392079598,203.37272326218323,228.2041977217472,162.58957468212455,315.0162142438082,347.49566683696685,324.9822385235275,248.61314441753532,272.71870316784816
2011-07-01,316.33852212784745,195.3064911119823,288.5155942917406,287.0746895704413,429.75392009224123,247.65551348496425,187.1632054593133,252.88219059713774,138.65544753795535,175.89691530009205,247.6559868197295,133.86287094669942,221.65242644972895,262.83364268246476,161.4358618289174,319.690881276979,374.8010492967287,316.19328324349834,256.8065721651807,288.5155942917688
2011-10-01,332.7866644769644,192.02629425441015,301.7620121288305,298.46024767333074,455.59757784843964,256.1847743127263,192.45074449402713,261.93146339742725,140.93731214940902,180.28987787147804,256.4555397450333,136.56799187053142,235.17542928196474,272.88942584552,168.04815824113416,330.06996721524774,404.69129024936325,345.29814033916307,253.18623167132768,301.76201212918016
2012-01-01,348.68566100114316,192.29965512979905,316.25973540853846,314.8978491925619,489.24729252483303,277.029169395495,196.8257678721978,270.20721759601963,142.93038698866226,186.5434376650272,272.23602027264656,140.27001967538285,232.15118162884343,266.57875751693444,161.11182969905366,362.68331503287925,406.45832722403793,342.2138305615516,256.3229092585921,316.2597354083439
2012-04-01,362.7475661588982,215.24853647211506,335.0735079446582,336.5698946128892,524.6588920627482,295.5461035625902,217.65711731464455,283.55943547337256,148.7340122746194,205.6273968914302,284.29186120993324,144.45089221687434,252.02464269176917,282.2913044149008,173.48008547936266,377.81579109352595,377.46957626151607,373.5895201552644,273.12997172037836,335.07350794438315
2012-07-01,384.5024871116417,206.44915285385997,345.9616943744675,341.48701428144545,528.0335972586282,293.23107130843533,212.80460858859507,294.9203845633951,145.30367330654758,194.94163049572867,287.00608868398785,139.52942007578818,270.86204562351026,308.8008362564558,183.8799343210094,390.8861998342617,403.74398730251914,366.65424163847837,283.8771137276533,345.96169437420394
2012-10-01,403.1597401404473,209.51103130804233,361.5953630873249,356.8748316496383,556.7827586993824,305.0155005003698,222.27053573231578,306.575634729699,155.07811657233202,206.261629224748,300.3852764929261,148.99208185370966,278.31898976397775,318.777160838591,195.45716250030088,397.0755185891663,539.4107156010087,394.40551581225185,291.2975780323874,361.5953630873849
2013-01-01,426.67886619864726,232.59950450449637,386.52963519154997,384.2753974385836,584.5217618495072,343.9604441023402,238.77896986148195,336.0911230248754,164.3133452697958,222.61766060219682,337.84104759876584,161.6466743893054,291.1977677041259,333.35242226451066,184.31144343370093,458.7478233447069,495.63811268226965,376.7552168224344,301.0423083562883,386.5296351915039
2013-04-01,436.2999824904661,258.023031097785,401.156237253412,403.18663514318445,622.0320502081059,358.16652764315256,264.9716274526986,350.4612827638146,181.6457657573232,249.0407115134793,348.1639094215393,175.53474157487884,307.22371387456246,354.31417557622035,210.1389088121982,469.06833168345787,511.03246888890806,387.8961849682274,323.9756535162986,401.15623725318477
2013-07-01,476.3329325845123,261.21582376748626,429.10470740974773,425.88449443913527,644.2518595314075,376.6159346355067,272.26820398359723,365.03597554862523,190.71223405332861,258.89032565927135,362.91816787974733,185.04801305209227,308.40559662667914,368.92818878017164,213.66832563346492,489.11903597630345,616.2041722560867,375.06329612879915,333.5063722531811,429.1047074100357
2013-10-01,520.7910362708215,282.48421806472544,470.1807610854387,468.19045834898486,699.6496519035531,412.2748272263128,300.4128016764556,398.0932070316821,213.80907972450512,286.5425250527339,394.0348205892979,206.7288074481788,338.8866389989506,406.2024783386914,241.4019725168621,517.1269099994718,791.8786133385412,458.963330027797,350.1538986101504,470.18076108572086
2014-01-01,583.7948262790837,356.81574269946435,537.0291214692342,533.0750823889289,752.4513278701016,489.7233174171446,344.83790446040297,470.42180860154275,260.6984878797429,329.2370164548691,465.9948967181219,257.2112029937854,395.17587614296457,478.88019839564794,278.3552151495035,611.9850370283243,894.7857795610573,520.6380791659587,438.3800354740707,537.029121469429
2014-04-01,618.2977317117943,385.5243919165619,575.865244626822,560.3216667663417,835.6832173526842,522.4542610544016,377.7728496464437,504.01556964004845,268.7812309871914,352.9212126229554,488.1335382522426,261.1931352775632,456.4703234002952,535.2610088987884,309.7566267930884,655.9773638030296,844.6067632756705,567.2094465641986,498.6929875738353,575.8652446269908
2014-07-01,678.1936786305299,386.0944117153485,619.6712381080358,622.1604545713393,865.8334657031029,552.9339266632277,408.6595942190024,542.6381215973263,294.56600907250277,383.84361097472015,528.9311285998299,284.8729987749978,493.6575145442535,572.0980617736932,350.35840520904856,690.447768609532,872.2202099981013,596.4542047381947,485.980004552788,619.6712381082136
2014-10-01,729.6568321539007,396.64541858904056,667.8160294691447,675.0274948902464,962.4989940369444,583.8558944481293,437.4165671399955,593.2139227708382,311.18714897244826,413.50479065240853,578.2272737752465,302.7447005334262,526.4869423507242,629.5827020251938,360.30201934519744,710.3455344261587,966.0069859020256,627.559239160665,466.61661605252044,667.8160294695037
2015-01-01,756.9966805034876,383.907793965643,685.1616093705904,693.5823964548777,987.0537201624135,617.2176973866079,431.37299947098677,605.2215380214019,306.596857968758,399.88549312836255,589.3648596846559,301.43589894573586,562.4722097478254,635.9800252957983,359.7373988597603,766.8564365634838,1134.2820921213927,628.2727150389439,458.56782330433896,685.1616093705907
2015-04-01,752.1749660725158,390.7230678839643,687.0107370678331,699.3422217309376,1072.7115068991811,629.5198443571148,450.0281550613686,621.6618567675358,306.5172398514632,415.7005597193189,593.4295652264635,294.27569088250476,560.7394884783022,681.7577409603982,367.4384957960538,791.8601085858654,1055.6760173744465,679.9486317638489,460.4588976337832,687.0107370678332
2015-07-01,866.1969976170271,389.84944456392816,765.3154955477825,777.9707975975865,1123.5946196303594,674.7993566561979,484.55563892412385,688.3184422984782,320.74394250582407,439.58209762170276,640.7798018213332,313.54569059662157,632.0383372198735,781.5466772971212,361.5184342155777,856.3469853545078,1116.396332825537,682.899294888135,472.81949186717736,765.3154955477822
2015-10-01,931.1229327522136,426.4200903442293,829.3694259174274,850.6412648702124,1250.9438840506793,705.054652242829,537.8373755918252,734.9813136377608,357.3584852325116,494.1366566440731,678.0454075817983,351.3769089125879,704.9537207802484,884.9663839661022,392.5827310063425,861.5415568754107,1213.8589270962284,812.4894454241609,495.4031500004225,829.3694259174277
2016-01-01,1033.9590414676231,585.8321923678807,940.1229128143584,927.1849693027557,1318.2971354488532,860.6337329530163,650.7231153155433,860.3499187134853,495.22836952171303,590.7046163442624,792.0209828874315,480.38069612238485,887.3857112772951,994.8363283328297,625.2986773921205,1001.8350726399566,1805.193045986412,905.9357257402231,671.5053206106737,940.122912813857
2016-04-01,1106.1548834785697,554.8580422950845,996.9537778797198,990.7263534007202,1462.5589671823534,854.1546907604788,642.9341614073386,876.9018316750368,454.18183159901895,573.9311933558055,790.009741968614,437.5922608985115,878.1066267512475,1053.2089364497376,553.1769864811787,1080.7554665574794,1530.106176855262,990.4319335519272,688.4321216618604,996.9537778794077
2016-07-01,1228.0881391404985,596.402574776264,1090.6838103606517,1110.5971802563568,1550.0232019521507,890.8956848455022,673.2329038293578,882.6875145398513,510.935555056164,612.9621825598454,789.0548153422263,492.9752671229344,848.969880974397,1092.2704104714596,576.9093386808809,1127.3250787426537,1470.5216785615507,1035.1333766126343,756.8399931156226,1090.6838103604146
2016-10-01,1293.1549223172153,656.6369982440714,1158.615394003018,1169.532883058717,1678.4081429226603,930.489438523202,726.1283568305254,939.5784772542959,549.7904170010798,694.0445030694082,875.507452623266,545.754346782557,809.1021682576494,1101.7913701097366,560.4148320058257,1142.5938671663016,1826.956696813334,1085.697439525568,777.4740551078162,1158.6153940028953
2017-01-01,1356.0714221559763,662.6730330456811,1202.2827308176313,1203.79836266044,1740.9777710458623,1046.9339519298815,733.4194681599191,973.8573135902802,565.6551726957636,678.0937690119137,943.3908420405279,531.7242530476635,901.4589017891799,1030.6481986428478,723.5378982154019,1296.7422008131475,2549.176729528463,1118.8120388662862,770.0182816971907,1202.282730816873
2017-04-01,1356.395884552108,658.7744240687416,1207.5052169907126,1245.694689438675,1860.6768545417053,1024.505875641803,737.4268935502058,972.9542913858921,544.9071307378722,666.8675927197157,909.9517513583808,498.3144183843548,962.4765300275964,1115.2421853012356,753.0000126474064,1330.9337030499457,2143.379887622344,1186.443677031197,785.8083880329342,1207.505216986677
2017-07-01,1541.548665648678,714.987708318404,1342.2765357892235,1393.1137889853799,1912.9134846336867,1087.2268061065124,796.5692033441239,1045.956330944383,616.1248299846283,732.2498354900155,981.9694014570596,581.365420471968,1017.3596133765686,1191.6166752767601,788.2814992897937,1433.7401131896254,1918.895387698409,1207.6590086440528,855.9913576331209,1342.2765357861444
2017-10-01,1618.2059299173418,719.5300658063234,1403.12614102617,1455.2107721207374,2097.2193568387743,1127.1698315658832,836.9101388503831,1107.6459468489393,628.76386892545,776.2420068412757,1042.1455756011428,604.3438797792975,1062.6646112562628,1269.5809631463635,763.6983328897417,1419.7944385968894,2408.1073736395306,1292.4806352928094,888.363786951982,1403.1261410257384
2018-01-01,1761.2558920672213,851.613887583687,1541.4030829628698,1625.1419821062693,2097.6106744918766,1342.3235277384667,911.4102970663469,1309.1171747753351,648.9725549841093,866.7352953071909,1389.5167772630593,603.7455706662556,1058.9587928806313,1162.2547896123665,900.6529026210839,1713.676414249867,3503.0687995572316,1430.7508789689996,1020.235985666461,1541.40308296287
2018-04-01,1930.8064751595093,1006.5522108537714,1720.5245675168107,1755.535028847069,2283.98367059682,1429.676616662661,1001.1682938926483,1418.8330512085242,709.1934927083674,937.6103660915678,1445.2903471845323,652.0119867344831,1242.5718241000482,1359.2050634881998,1062.6280672865125,1833.482330226588,3140.3235944675926,1634.6849743920202,1272.0325458731543,1720.5245675168105
2018-07-01,2194.5468901396007,1352.5439934769838,2001.7461877118442,2107.5285189611163,2341.5730203468624,1676.0363655600258,1257.5534198098635,1754.468539605535,944.1753829234822,1198.4978076988098,1745.394825884652,908.0486199285317,1537.5476607738583,1780.3837758831326,1207.9069463204053,2052.707937014743,2821.7336723295375,2036.8892325864663,1654.3245780495638,2001.7461877118446
2018-10-01,2477.513217421149,1570.8652016484357,2294.4514355137153,2401.810218339206,2856.818375546999,1976.5338675996366,1561.8540778914867,2130.449334505286,1145.0694348105042,1488.1782726815015,2096.8795556138557,1123.1482609834109,1930.8121894453564,2225.3899688951906,1349.189067555419,2241.0086952325814,3613.2094006597877,2008.649796653654,1798.6155476813703,2294.4514355137158